Retour au catalogue

OPS 4682 DEB

ActifPO
NORAD 38448·DEBRIS·🇺🇸 United States

Lancé Apr 3, 1965 depuis Vandenberg Space Force Base

Loading…

Prochains Passages (prochaines 24 heures)

TLE

FraisSource: Space-Track

Époque: Sep 12, 2026, 18:32 UTC

1 38448U 65027FD  26255.77285951  .00000856  00000-0  28011-2 0  9994
2 38448  90.2467   8.6362 0028495  13.7132 346.4759 13.00368960565748

Suivez OPS 4682 DEB en temps réel avec AllMySat

Download on the App Store